Regional Weather Roundup
Issued by NWS

Home | Current Version | Previous Version | Graphics & Text | Print | Product List | Glossary Off
Versions: 1 2 3 4 5 6 7 8 9 10 11 12 13 14 15 16 17 18 19 20 21 22 23 24 25 26 27 28 29 30 31 32 33 34 35 36 37 38 39 40 41 42 43 44 45 46 47 48 49 50

000
ASUS43 KMPX 281801
RWRMN
WEATHER ROUNDUP FOR MINNESOTA
NATIONAL WEATHER SERVICE TWIN CITIES/CHANHASSEN MN
1200 PM CST TUE FEB 28 2017


NOTE: "FAIR" INDICATES FEW OR NO CLOUDS BELOW 12,000 FEET WITH NO
SIGNIFICANT WEATHER AND/OR OBSTRUCTIONS TO VISIBILITY. N/A MEANS
CURRENT SKY AND/OR WEATHER CONDITIONS ARE NOT AVAILABLE.

MNZ060>063-068>070-281900-
   Twin Cities Metro

CITY           SKY/WX    TMP DP  RH WIND       PRES   REMARKS
TWIN CITIES    CLOUDY    45  32  60 NE12G26   29.68F
6HR MIN TEMP:  36; 6HR MAX TEMP:  45;

ST PAUL        CLOUDY    44  34  67 NE7       29.70F
CRYSTAL        PTSUNNY   44  30  57 NE10      29.68F
BLAINE         CLOUDY    46  34  61 NE12G17   29.70F
LAKEVILLE      CLOUDY    43  37  81 NE9       29.67F
EDEN PRAIRIE   MOSUNNY   45  32  60 NE9       29.67F
6HR MIN TEMP:  36; 6HR MAX TEMP:  46;

SOUTH ST PAUL  CLOUDY    45  33  63 NE7       29.68F
LAKE ELMO      CLOUDY    43  34  70 NE8       29.69F
$$
MNZ001>005-007-008-013>017-022>024-027-028-281900-
   Northwest Minnesota

CITY           SKY/WX    TMP DP  RH WIND       PRES   REMARKS
BEMIDJI        SUNNY     30  20  65 NE10      29.83F WCI  21
HALLOCK        SUNNY     19   9  63 N7        29.96F WCI  10
ROSEAU         SUNNY     18  10  73 E9        29.95S WCI   6
WARROAD        MIX PCPN  16   9  73 NE10G16   29.95F WCI   3
THIEF RVR FALL   N/A    N/A N/A N/A MISG        N/A
CROOKSTON      SUNNY     23  16  74 NE8       29.92F WCI  14
FOSSTON        MOSUNNY   27  19  74 N8        29.86F WCI  18
DETROIT LAKES  SUNNY     32  23  69 NE9       29.81F WCI  24
MOORHEAD       MOSUNNY   27  21  80 N15       29.85F WCI  15
PARK RAPIDS    CLOUDY    30  20  66 NE10      29.79F WCI  21
MAHNOMEN       FAIR      29  22  75 NE12      29.83F WCI  19
$$
MNZ006-009>011-018-025>026-281900-
   North Central Minnesota

CITY           SKY/WX    TMP DP  RH WIND       PRES   REMARKS
BAUDETTE       SUNNY     24  12  60 E7        29.91S WCI  16
FLAG ISLAND    SUNNY     16   7  67 N8        29.96F WCI   5
INTL FALLS     SUNNY     23  14  68 NE9       29.90F WCI  13
6HR MIN TEMP:  18; 6HR MAX TEMP:  23;

WASKISH        MOSUNNY   30  19  64 NE7       29.87F WCI  23
BIG FORK       SUNNY     30  19  64 NE9G20    29.84F WCI  22
LONGVILLE      CLOUDY    28  23  80 N6        29.81F WCI  22
GRAND RAPIDS   CLOUDY    28  22  78 N10       29.83F WCI  19
CRANE LAKE     MOSUNNY   27  18  69 NE7       29.90F WCI  19
ORR            SUNNY     30  16  55 CALM      29.83F
COOK           CLOUDY    27  19  74 NE5       29.84F WCI  21
WALKER         CLOUDY    27  21  78 E5        29.83S WCI  22
$$
MNZ012-019>021-037-281900-
   Northeast Minnesota

CITY           SKY/WX    TMP DP  RH WIND       PRES   REMARKS
DULUTH         LGT SNOW  32  29  88 NE16      29.78S FOG     WCI  21
6HR MIN TEMP:  29; 6HR MAX TEMP:  32; 6HR PCP:  0.05;

ELY            CLOUDY    25  19  80 N6        29.83F WCI  18
HIBBING        CLOUDY    27  22  81 N9        29.81S WCI  18
EVELETH        CLOUDY    30  22  72 NE9       29.82S WCI  22
DULUTH HARBOR  MIX PCPN  34  32  93 NE15      29.81F WCI  24
TWO HARBORS    LGT SNOW  34  28  80 NE6       29.79S WCI  29
SILVER BAY     CLOUDY    32  28  86 E10       29.80S WCI  24
GRAND MARAIS     N/A     32  24  72 N9        29.85S WCI  24
G MARAIS ARPRT CLOUDY    25  18  74 N9        29.80F WCI  15
$$
MNZ029>031-032-039>041-046>048-054>057-064-281900-
   West Central Minnesota

CITY           SKY/WX    TMP DP  RH WIND       PRES   REMARKS
FERGUS FALLS   MOSUNNY   30  21  69 NE7       29.83F WCI  23
WHEATON        CLOUDY    28  23  80 N12       29.82S WCI  18
MORRIS         MOSUNNY   34  28  80 N12       29.75F WCI  25
ALEXANDRIA     CLOUDY    33  26  75 N13       29.76S WCI  24
ELBOW LAKE     CLOUDY    29  23  78 NE10      29.78S WCI  20
WADENA         MOSUNNY   28  21  74 NE8       29.78F WCI  20
GLENWOOD       FLURRIES  34  30  86 N13       29.74S WCI  25
APPLETON       CLOUDY    34  28  80 N15       29.75F WCI  24
BENSON         LGT RAIN  36  30  80 NE8       29.76S
ORTONVILLE     CLOUDY    28  25  86 N15       29.77F WCI  17
MADISON        CLOUDY    34  28  80 N14       29.75F WCI  24
WILLMAR        CLOUDY    37  36  93 NE10      29.73F
$$
MNZ033>034-036-042>043-049>051-058-059-281900-
   Central Minnesota

CITY           SKY/WX    TMP DP  RH WIND       PRES   REMARKS
ST CLOUD       CLOUDY    37  33  85 NE14G20   29.72F
6HR MIN TEMP:  33; 6HR MAX TEMP:  38;

SAUK CENTRE    LGT SNOW  31  29  92 N8        29.75S WCI  24
PAYNESVILLE    CLOUDY    35  35 100 N10G17    29.73F FOG     WCI  27
AITKIN         LGT SNOW  34  27  75 N9        29.78S WCI  26
PINE RIVER     CLOUDY    28  25  86 N10       29.83F WCI  19
BRAINERD       LGT SNOW  32  27  81 NE12      29.78F WCI  23
STAPLES        CLOUDY    28  25  86 N7        29.78S WCI  21
LONG PRAIRIE   FLURRIES  32  28  86 NW9       29.76S WCI  24
LITTLE FALLS   LGT SNOW  32  30  93 N6        29.76F WCI  26
LITCHFIELD     PTSUNNY   43  36  75 NE10      29.71S
BUFFALO        MOSUNNY   42  32  68 N14G21    29.71F
MAPLE LAKE     CLOUDY    43  35  72 NE12      29.71F
HUTCHINSON     SUNNY     44  36  71 N10G16    29.70S
$$
MNZ037-044-045-052-053-281900-
   East Central Minnesota

CITY           SKY/WX    TMP DP  RH WIND       PRES   REMARKS
PRINCETON      CLOUDY    39  34  81 NE8G18    29.72F
MORA           CLOUDY    34  32  93 NE5       29.77F WCI  30
CAMBRIDGE      CLOUDY    39  30  70 NE8       29.71F
RUSH CITY      CLOUDY    37  31  80 N10       29.74F
MOOSE LAKE     LGT SNOW  32  30  93 NE5       29.76S WCI  27
HINCKLEY       CLOUDY    34  32  93 N7        29.76F WCI  28
CLOQUET        LGT SNOW  32  30  93 NE7       29.78S WCI  26
MCGREGOR       CLOUDY    32  32 100 N8        29.79F WCI  25
$$
MNZ071>073-080-081-089-090-097-098-281900-
   Southwest Minnesota

CITY           SKY/WX    TMP DP  RH WIND       PRES   REMARKS
MONTEVIDEO     LGT SNOW  32  32 100 N10       29.75S WCI  24
GRANITE FALLS  CLOUDY    36  33  89 NW9       29.74S
CANBY          CLOUDY    29  26  89 NW12      29.76S WCI  19
MARSHALL       CLOUDY    31  28  89 N14       29.72S WCI  21
REDWOOD FALLS  MOSUNNY   44  32  62 N12       29.69S
OLIVIA         PTSUNNY   41  34  75 NE15      29.69F
PIPESTONE      CLOUDY    34  28  80 NE9       29.67S WCI  26
WINDOM         CLOUDY    41  36  81 N13       29.66F
WORTHINGTON    CLOUDY    38  33  82 N14       29.66F
JACKSON        CLOUDY    36  32  87 VRB9      29.66S FOG
TRACY          CLOUDY    33  32  94 N14       29.69F WCI  24
SLAYTON        CLOUDY    32  31  98 N15       29.69S FOG     WCI  22
$$
MNZ065>067-074>077-082>085-091>093-281900-
   South Central Minnesota

CITY           SKY/WX    TMP DP  RH WIND       PRES   REMARKS
MANKATO          N/A     44  37  76 NE9       29.66F
NEW ULM        MOSUNNY   43  34  70 NE8       29.67F
ST JAMES       MOSUNNY   41  36  81 CALM      29.67F
FAIRMONT       MOSUNNY   38  34  85 N12       29.66S
GLENCOE        CLOUDY    45  37  72 N9        29.67F
FARIBAULT      CLOUDY    39  36  87 N8        29.68S
OWATONNA       MOSUNNY   39  36  87 NE9       29.65F
WASECA         CLOUDY    39  34  81 N10       29.67S
ALBERT LEA     CLOUDY    37  36  93 NE10      29.63F FOG
$$
MNZ078>079-086>088-094>096-281900-
   Southeast Minnesota

CITY           SKY/WX    TMP DP  RH WIND       PRES   REMARKS
ROCHESTER      FOG       39  37  92 NE8       29.64F VSB 1
6HR MIN TEMP:  35; 6HR MAX TEMP:  40;

RED WING       CLOUDY    43  34  70 E5        29.67F
STANTON        CLOUDY    40  34  81 N8        29.67R
WINONA         CLOUDY    41  37  87 NE6       29.68S
AUSTIN         CLOUDY    39  36  87 NE8       29.63F
PRESTON        FOG       38  37  96 N7        29.64F VSB 1/2
$$
ABBREVIATIONS USED IN REMARKS
   TC - TEMPERATURES IN CELSIUS
  WCI - WIND CHILL INDEX
   HX - HEAT INDEX
  VSB - VISIBILITY
$$




USA.gov is the U.S. government's official web portal to all federal, state and local government web resources and services.